Theta_e
329 328 333 340 344 347 348 344 335 338 335 335 336 338 337 342 342 349 347 348 351 346 327 331 326 324 325 326 327 334 340 341 344 343 335 331 332 338 337 335 333 330 327 324 323 327 331 334 336
328 336 337 334 341 348 344 339 335 334 334 336 336 336 342 342 342 341 342 350 351 343 328 331 327 324 327 331 335 337 340 341 342 345 338 333 332 337 336 333 331 329 328 326 324 325 328 332 335
327 335 332 335 338 340 334 333 335 336 338 338 338 340 342 343 342 342 344 350 350 346 336 331 328 324 327 331 336 337 339 342 343 345 342 336 332 336 336 333 330 328 328 329 327 325 326 328 331
332 334 330 333 335 333 332 334 339 338 338 337 339 338 342 341 342 344 344 345 350 348 342 332 330 324 323 326 334 337 339 343 344 346 344 340 334 335 336 333 331 329 328 329 330 331 331 329 328
332 331 334 336 332 332 332 333 336 339 336 341 344 342 343 345 346 346 343 342 343 352 345 331 331 328 323 323 326 332 336 341 344 344 344 344 340 337 336 336 333 331 330 329 329 331 337 339 338
329 329 334 335 331 331 332 332 337 337 336 343 339 336 334 346 348 346 343 340 343 351 341 332 333 331 326 323 323 325 327 331 336 338 340 341 342 340 338 337 335 334 332 328 328 330 332 335 337
328 331 334 331 331 330 332 331 332 337 337 344 338 340 333 346 347 347 347 344 344 347 337 331 333 332 330 328 325 323 323 324 325 328 332 336 338 337 335 334 332 331 330 328 327 326 327 329 331
328 332 331 330 330 331 333 334 333 339 339 346 342 335 343 347 348 344 343 346 346 345 346 337 331 329 333 332 331 329 328 327 326 325 325 325 327 329 329 327 325 325 326 326 326 325 325 325 326
330 329 330 328 329 330 332 334 335 339 334 343 348 345 348 348 348 337 340 334 343 338 347 349 346 344 341 338 338 341 339 332 331 331 330 329 328 328 329 329 328 326 324 324 324 325 325 325 326
330 330 328 328 329 329 333 337 336 344 342 346 347 348 348 347 348 346 344 342 338 340 347 341 337 348 346 345 347 344 344 339 337 334 334 337 337 336 341 343 345 344 342 340 332 327 325 326 325
330 329 329 330 331 329 333 341 338 346 348 347 347 347 350 347 343 343 339 339 342 342 345 345 337 348 347 349 348 343 347 336 329 343 345 346 348 346 342 340 340 339 339 337 338 334 329 324 324
329 329 328 333 333 334 337 343 345 346 347 347 347 349 344 341 338 338 336 333 335 340 341 344 344 345 344 341 341 338 338 330 333 325 343 344 330 340 341 343 342 344 343 343 343 343 341 341 340
328 329 327 332 334 337 341 345 346 346 346 346 345 344 340 337 338 335 335 336 334 333 336 338 334 331 331 332 331 332 331 336 331 331 338 337 340 341 340 343 339 339 338 337 339 341 338 338 342
329 329 328 332 334 337 344 346 349 350 346 343 341 339 337 336 336 335 334 334 335 334 335 331 328 329 329 333 332 337 332 331 338 335 335 331 332 342 342 341 340 339 339 339 339 339 338 338 336
328 327 328 331 337 345 337 338 333 347 344 340 335 334 334 334 334 334 334 334 335 335 335 336 335 335 333 334 333 336 337 331 336 336 334 334 339 339 338 335 335 336 337 336 338 339 340 339 339
326 327 329 332 343 336 337 339 333 344 341 337 336 335 334 334 334 334 334 334 335 335 334 332 333 332 331 330 329 328 333 331 335 335 334 335 335 334 334 337 336 335 337 337 336 338 338 337 337
328 328 333 336 335 338 336 337 334 337 339 336 334 334 334 334 334 334 334 334 333 333 331 327 321 326 326 325 325 324 322 323 324 326 326 329 330 329 326 330 333 333 333 334 337 338 337 337 336
330 330 332 337 335 337 337 335 336 341 338 334 333 333 334 334 334 334 334 333 332 331 328 327 324 323 321 324 323 321 321 321 321 322 323 322 322 327 329 327 326 329 328 330 333 335 337 336 336
330 330 334 338 336 334 341 343 344 342 339 335 333 333 334 334 334 334 333 332 332 331 329 326 324 324 325 321 324 321 322 320 320 322 320 326 325 324 322 322 326 326 329 327 328 333 335 336 336
329 331 335 337 335 335 340 343 342 342 340 335 333 333 334 334 334 334 334 333 333 332 330 329 327 324 324 321 322 322 321 320 320 318 321 322 321 320 324 325 326 324 326 328 327 327 329 328 329
331 333 337 336 336 337 337 342 337 339 339 335 334 334 336 335 336 336 335 333 330 329 330 328 327 325 324 323 323 321 321 320 319 321 321 319 320 323 321 322 322 323 325 326 327 327 328 329 327
331 332 330 331 332 333 338 342 333 341 335 339 339 336 336 336 335 332 332 330 326 325 323 324 324 325 325 324 324 321 321 320 319 320 319 318 319 318 318 320 322 323 324 324 324 325 326 326 327
330 331 330 329 330 332 336 340 347 339 333 336 341 339 337 331 333 332 328 325 324 322 322 322 323 325 324 323 321 319 319 317 317 317 315 313 313 314 315 316 317 318 321 321 321 321 323 324 324
330 329 330 331 333 333 338 336 348 342 340 338 339 339 337 334 330 329 325 323 323 321 320 320 323 323 322 319 318 317 317 316 315 313 313 312 311 312 313 315 316 317 318 319 319 321 323 324 325
330 332 334 336 337 338 339 344 344 340 340 341 340 338 332 331 328 325 324 323 321 321 320 323 322 320 319 319 318 317 315 313 313 312 311 310 309 310 311 312 314 316 316 319 321 322 323 323 324
331 330 331 332 330 329 338 346 343 338 338 338 336 334 331 328 326 325 323 322 321 321 322 322 320 320 319 319 317 316 314 312 311 310 308 308 307 307 310 311 312 312 315 317 319 319 320 321 322
332 334 333 332 334 332 341 340 339 336 335 335 334 331 328 327 325 324 323 322 322 322 321 321 320 319 318 317 315 314 313 311 309 310 308 307 308 307 307 310 311 311 311 314 315 315 317 317 318
332 332 330 332 334 330 342 343 341 337 335 333 331 328 326 325 324 322 322 322 321 320 320 319 319 318 316 313 315 312 310 310 307 308 307 306 305 305 305 306 309 309 310 310 311 311 311 313 313
333 333 335 333 331 334 332 340 335 335 333 332 328 327 325 323 321 322 321 321 320 320 320 319 318 316 312 314 313 308 307 308 308 307 305 305 304 303 303 304 306 307 308 308 309 309 309 309 309
330 330 332 333 335 332 329 340 334 332 330 328 326 325 323 321 320 322 322 320 319 318 319 318 315 310 313 312 312 309 308 308 306 306 304 303 303 302 301 302 302 303 305 306 306 306 306 307 308
Wind_Speed
7 6 3 6 6 3 7 11 12 12 10 14 22 21 19 28 15 6 8 10 14 6 12 12 11 12 12 11 11 10 8 8 11 11 11 11 11 11 9 8 8 9 9 11 13 16 15 13 12
9 9 13 12 7 10 8 16 9 12 9 11 21 25 25 19 20 16 13 15 13 7 13 12 11 12 12 11 10 9 8 9 13 13 12 12 11 11 9 7 7 8 9 11 12 14 15 14 12
9 9 13 11 10 12 7 8 8 13 27 19 14 26 20 18 16 11 13 11 11 12 14 13 12 11 11 10 9 8 7 8 13 13 12 11 11 10 8 7 8 9 10 11 12 13 15 15 14
5 14 13 12 8 1 9 6 20 9 25 2 20 7 7 16 14 13 12 11 19 17 11 15 13 13 12 12 10 7 6 7 11 12 10 9 11 11 10 9 10 11 12 13 13 14 14 15 16
12 13 12 16 5 9 8 8 7 22 15 12 36 15 22 13 11 13 11 12 14 16 9 14 14 13 12 12 10 8 6 6 9 9 10 10 11 11 13 12 11 13 14 15 15 16 16 16 16
16 21 11 9 13 10 6 11 36 12 12 31 16 16 5 8 7 11 12 12 13 11 10 14 14 12 11 10 9 7 7 8 10 11 12 13 12 13 15 15 14 15 16 17 18 18 18 19 19
16 12 19 6 11 11 8 7 15 16 20 14 18 11 16 12 8 10 10 12 10 15 8 14 14 13 13 11 10 9 9 10 11 12 13 13 13 13 14 15 16 17 19 20 20 21 21 21 21
21 14 13 5 12 12 8 17 15 26 27 19 15 10 6 9 12 33 37 21 23 5 10 11 12 10 9 8 7 7 8 9 9 10 11 12 14 15 16 18 19 20 21 21 22 23 23 23 24
14 9 11 12 10 9 10 15 16 20 27 12 18 13 11 5 10 23 15 8 2 11 16 19 8 10 11 9 7 2 7 11 10 12 13 14 15 15 14 15 17 19 21 22 24 25 25 25 26
13 12 14 10 9 10 10 13 15 22 12 12 21 17 15 21 28 25 29 24 17 25 32 22 27 9 4 17 4 7 8 6 15 16 12 11 14 10 13 15 14 19 21 22 23 27 28 29 30
15 6 8 5 9 7 7 17 14 18 14 18 22 16 24 22 27 30 29 33 32 26 28 27 15 11 11 8 5 7 11 18 63 15 8 10 13 16 16 21 23 23 23 23 24 23 27 32 33
8 3 6 7 4 10 9 17 15 17 16 15 18 23 24 26 28 26 25 24 25 26 25 13 12 5 8 11 11 21 26 27 7 14 7 19 22 22 23 21 14 12 14 21 21 23 21 23 24
9 3 3 2 1 9 11 19 15 20 17 22 23 22 24 22 20 23 25 26 27 30 24 22 18 16 16 15 17 20 23 20 8 15 16 24 21 19 21 20 26 28 25 22 21 24 26 28 23
9 5 5 5 8 4 18 19 17 17 18 21 21 20 21 19 18 20 22 26 26 25 22 23 25 26 24 25 21 22 22 24 12 17 22 14 20 19 20 21 19 18 19 22 25 27 29 27 31
5 10 10 12 9 13 17 11 19 17 20 23 23 22 23 22 20 19 20 24 21 20 18 22 20 22 24 22 23 22 22 28 23 22 18 19 20 23 21 24 25 26 26 31 32 35 33 25 22
11 13 15 12 21 10 18 5 18 11 24 22 20 21 21 20 19 18 18 19 17 16 18 15 15 12 19 15 18 18 17 23 20 23 26 23 17 15 19 21 22 24 27 32 37 38 37 32 34
11 14 18 12 17 10 12 3 32 30 30 19 16 18 19 19 18 17 16 16 15 13 15 17 20 18 19 20 20 16 17 16 17 18 20 19 19 20 24 23 25 26 26 25 29 34 33 37 35
14 14 12 14 14 27 16 9 30 21 23 17 15 16 14 14 15 13 14 13 14 14 15 17 19 22 22 19 20 22 19 19 22 19 20 24 27 20 19 25 25 25 28 25 23 24 28 29 29
14 10 5 6 5 9 9 14 17 20 23 19 13 13 11 10 12 12 11 10 10 11 13 16 20 20 21 19 21 24 25 26 24 24 23 22 16 23 28 26 24 24 27 28 24 21 23 27 26
10 13 3 6 2 6 26 21 20 3 20 18 17 11 9 8 8 9 8 7 8 6 8 12 14 16 14 19 18 20 21 23 25 25 27 31 30 28 28 25 22 24 26 27 23 24 22 23 21
12 9 3 9 3 8 11 10 10 16 43 10 12 14 10 10 8 6 4 3 8 5 6 8 9 16 14 17 18 24 22 23 25 27 28 30 26 26 29 27 25 24 22 23 23 23 21 20 20
12 9 4 9 9 11 9 5 5 6 12 9 16 12 3 0 5 8 2 4 10 10 11 7 12 14 10 18 17 23 23 26 23 26 28 27 26 30 29 28 26 23 23 22 24 24 22 20 21
10 10 8 12 13 11 9 4 1 7 9 15 16 9 16 9 10 11 16 11 15 19 19 19 17 13 15 15 25 26 29 29 25 28 24 27 27 25 25 29 30 29 26 25 27 27 20 18 18
9 8 12 12 12 11 6 3 6 8 17 13 17 12 10 10 16 12 13 17 19 18 17 20 12 14 18 26 28 32 30 31 29 25 27 29 30 29 28 25 20 18 18 22 25 21 16 14 12
8 11 10 9 6 5 9 14 10 6 13 13 13 13 17 14 13 13 14 16 15 15 18 15 19 27 28 27 30 30 33 30 23 25 26 26 31 31 29 25 21 19 17 16 14 11 10 11 13
3 6 7 12 10 10 7 7 5 15 18 23 19 15 12 15 11 12 10 9 12 15 14 19 24 24 27 27 26 28 25 23 21 23 25 27 31 31 28 25 23 23 20 13 11 12 12 11 12
7 5 9 8 13 8 13 19 17 10 12 21 17 18 14 11 13 14 17 21 23 24 26 23 21 22 24 23 22 20 20 20 19 21 24 24 27 29 27 23 22 22 24 19 16 15 11 9 8
5 8 6 3 5 6 12 12 6 11 12 10 16 13 13 15 17 20 24 26 22 23 21 19 22 22 21 25 19 22 20 21 21 19 25 23 22 24 30 20 19 20 20 20 17 14 14 11 11
1 6 4 5 5 4 8 7 9 8 9 11 16 15 17 17 19 18 20 20 21 21 23 26 25 21 25 21 25 25 24 23 25 24 24 24 25 26 21 23 21 17 17 17 17 15 15 15 13
5 8 7 4 10 8 8 5 8 8 10 9 11 15 16 18 20 23 19 21 20 22 22 22 20 23 23 25 21 26 27 25 26 24 26 29 27 24 21 21 22 20 17 16 17 18 18 18 17
Wind_Direction
255 277 335 272 89 300 241 246 30 125 42 64 67 94 64 54 47 61 67 89 109 92 129 130 134 139 140 148 166 179 185 188 194 189 185 181 176 177 180 184 183 181 180 178 181 185 189 194 201
248 259 250 264 224 202 243 251 68 49 28 82 49 65 72 57 72 78 88 111 101 109 128 128 131 139 142 148 160 177 191 203 199 195 193 194 191 187 190 192 198 200 193 190 191 196 201 207 213
246 221 264 229 232 251 18 36 16 76 59 52 80 54 40 87 71 99 111 115 130 125 132 132 133 140 148 153 161 173 184 197 199 198 200 204 204 201 206 209 213 218 213 206 204 206 211 216 221
269 244 236 244 208 68 58 8 79 56 24 348 107 55 55 90 99 115 126 137 140 143 142 140 140 144 150 157 166 173 183 187 200 205 210 214 215 215 220 228 230 231 227 221 217 217 220 223 229
247 266 245 282 53 50 20 354 86 88 136 49 82 43 19 80 106 123 121 122 125 149 165 147 146 147 149 153 163 175 186 183 192 204 215 225 225 226 229 234 239 240 239 234 230 228 229 232 237
255 250 273 289 87 49 44 337 83 81 61 116 89 87 322 268 150 139 121 112 124 118 138 149 151 151 150 152 159 170 185 195 208 214 218 222 227 229 235 241 244 249 248 243 240 239 240 242 245
254 270 270 41 94 69 346 350 15 82 41 51 122 126 183 234 157 113 105 112 123 145 169 162 163 161 157 156 158 170 190 202 209 216 224 230 233 238 244 251 256 255 252 248 247 246 246 247 249
258 286 282 1 57 70 335 13 29 36 17 32 118 146 198 179 160 52 37 60 44 60 168 130 151 154 167 162 168 186 204 213 218 224 226 228 232 235 242 250 252 250 249 249 250 251 252 252 252
274 280 286 53 10 41 20 13 34 97 85 352 82 123 122 169 24 3 27 347 201 2 329 122 352 140 124 173 169 223 300 253 244 242 240 242 238 237 241 256 258 259 258 256 254 253 253 253 254
241 270 53 34 34 344 66 48 340 54 56 113 101 100 53 43 53 84 78 78 42 10 17 352 9 2 177 170 238 351 356 360 300 268 252 264 273 260 256 276 262 267 266 268 269 264 259 257 256
251 338 9 64 45 301 53 62 28 65 59 46 65 60 63 46 53 62 53 56 59 48 42 10 48 353 62 88 182 219 157 318 325 233 265 280 266 260 248 244 257 277 281 271 274 269 264 262 263
270 121 320 34 34 21 87 89 81 88 83 75 74 70 66 59 50 54 58 48 48 44 40 35 17 15 1 316 303 317 292 325 339 315 267 253 271 255 252 257 263 292 286 279 279 274 281 280 275
256 229 250 151 323 118 82 91 92 89 91 84 81 83 76 76 65 60 59 65 58 52 53 37 26 36 27 13 4 355 334 326 267 271 256 272 267 269 258 264 264 266 272 262 282 273 263 266 264
258 228 234 229 179 176 128 106 103 85 94 92 87 88 87 87 77 68 66 61 57 66 55 42 45 50 38 35 21 12 7 4 341 270 271 277 261 276 259 266 259 272 281 277 269 269 269 257 252
287 269 220 229 134 99 69 55 327 142 123 108 108 105 99 94 87 77 70 70 57 51 61 59 40 26 27 25 21 2 354 356 353 349 333 305 288 278 287 278 279 266 264 264 264 266 268 253 251
237 237 240 187 131 83 73 24 261 198 122 112 114 111 107 100 94 82 72 69 65 61 46 46 49 38 33 16 19 7 2 350 340 335 339 333 321 329 311 302 295 288 280 273 265 270 275 267 268
209 239 227 189 204 112 106 307 266 264 118 122 128 125 116 106 96 87 77 69 62 56 41 41 43 36 23 5 5 348 337 344 340 349 346 341 344 330 324 319 313 306 302 298 281 271 269 272 268
219 229 199 213 181 122 138 144 253 189 121 131 148 128 115 112 102 92 81 67 56 40 37 33 23 20 22 10 0 351 5 359 349 348 336 333 330 332 313 309 324 313 311 307 306 292 282 276 272
323 316 92 121 65 325 179 190 162 122 134 144 137 127 122 113 109 96 82 70 53 36 13 6 5 10 11 16 3 354 1 354 352 345 346 332 338 328 328 324 311 319 309 308 306 297 286 281 275
280 271 273 93 114 304 74 22 345 338 148 135 135 137 130 121 100 87 77 56 27 11 16 358 4 18 360 2 3 356 355 350 345 336 341 325 331 338 334 325 317 316 310 307 301 306 299 294 288
255 302 27 300 150 228 122 132 200 22 11 101 146 150 156 155 154 133 98 26 6 344 334 352 348 343 346 351 352 350 355 344 339 344 340 325 335 325 323 317 307 310 312 312 312 306 292 296 299
301 228 343 294 283 290 178 84 302 83 147 255 262 177 116 76 112 86 107 37 26 14 5 334 340 347 347 348 5 358 350 340 335 333 319 324 314 310 308 299 300 301 305 309 309 309 298 293 294
318 338 297 289 283 281 121 109 113 130 215 228 222 124 101 123 73 42 58 41 41 26 15 8 24 19 27 14 360 353 345 344 343 334 336 335 334 327 313 309 309 300 291 297 301 304 304 295 292
324 284 266 272 270 260 137 257 146 198 217 212 232 86 90 95 64 46 65 39 14 13 10 357 30 37 15 4 357 349 346 350 345 349 351 352 358 356 356 347 337 328 310 299 298 308 305 299 300
223 250 272 228 253 289 198 76 30 105 149 181 116 120 95 81 77 48 16 3 6 5 14 56 29 17 15 16 360 347 349 351 352 354 356 353 354 1 0 2 360 346 331 323 324 316 310 311 311
311 336 335 337 335 346 120 100 174 87 113 102 94 91 77 72 43 13 356 4 5 38 39 25 25 12 7 357 353 349 348 351 358 0 359 360 360 359 356 2 4 11 359 337 330 316 318 313 313
353 356 354 314 287 265 99 101 55 72 70 114 99 76 53 28 31 25 14 49 53 39 30 26 24 17 3 1 353 4 6 4 9 2 5 3 351 350 356 355 1 11 10 5 346 339 354 353 347
269 333 296 231 309 342 102 92 90 53 49 45 79 63 42 24 8 14 44 39 35 21 23 9 10 9 0 6 6 355 358 356 7 8 3 6 359 353 346 353 3 6 11 20 17 33 39 31 38
321 39 336 344 297 334 302 85 74 73 58 34 42 34 17 7 5 38 36 30 23 20 15 14 13 6 5 7 355 4 5 5 9 7 5 0 354 355 1 6 7 5 13 21 29 36 32 36 42
67 5 14 342 358 328 294 94 73 43 65 52 30 22 19 16 11 34 30 22 19 14 11 11 10 13 20 6 358 3 9 12 7 5 2 358 358 7 11 15 12 9 13 25 33 32 25 23 21